Carroll, IA

7:29 AM CDT on May 27, 2017 (GMT -0500)
Neu

Weather History for KCIN - October, 2012

Change the Weather History Date:

Friday, October 12, 2012

  Actual Average Record
Temperature  
Mean Temperature 42 °F -  
Max Temperature 59 °F 64 °F 91 °F (1975)
Min Temperature 26 °F 40 °F 21 °F (1959)
Degree Days  
Heating Degree Days 22    
Moisture  
Dew Point 23 °F    
Average Humidity 50    
Maximum Humidity 76    
Minimum Humidity 19    
Precipitation  
Precipitation 0.00 in - - ()
Sea Level Pressure  
Sea Level Pressure 30.28 in    
Wind  
Wind Speed 10 mph (ESE)    
Max Wind Speed 23 mph    
Max Gust Speed 28 mph    
Visibility 10 miles    
Events      
Averages and records for this station are not official NWS values.
T = Trace of Precipitation, MM = Missing Value Source: NWS Daily Summary

Daily Weather History Graph

Daily Weather History Graph

Search for Another Location

Airport or City:

Trip Planner

Search our weather history database for the weather conditions in past years. The results will help you decide how hot, cold, wet, or windy it might be!

Date:

Astronomy

Oct. 12, 2012 Rise Set
Actual Time 7:28 AM CDT 6:41 PM CDT
Civil Twilight 7:00 AM CDT 7:09 PM CDT
Nautical Twilight 6:28 AM CDT 7:41 PM CDT
Astronomical Twilight 5:55 AM CDT 8:14 PM CDT
Moon 4:09 AM CDT (10/12) 4:53 PM CDT (10/12)
Length of Visible Light 12h 08m
Length of Day
11h 12m
Waning Crescent, 10% of the Moon is Illuminated
Oct 12
Waning Crescent
Oct 15
New
Oct 21
First Quarter
Oct 29
Full
Nov 6
Last Quarter

Hourly Weather History & Observations

Time (CDT) Temp. Windchill Dew Point Humidity Pressure Visibility Wind Dir Wind Speed Gust Speed Precip Events Conditions
12:15 AM 33.8 °F 27.0 °F 21.2 °F 60% 30.37 in 10.0 mi North 8.1 mph - N/A   Clear
12:35 AM 33.8 °F 27.0 °F 21.2 °F 60% 30.37 in 10.0 mi North 8.1 mph - N/A   Clear
12:55 AM 33.8 °F 26.4 °F 21.2 °F 60% 30.37 in 10.0 mi North 9.2 mph - N/A   Clear
1:15 AM 32.0 °F 24.8 °F 21.2 °F 64% 30.38 in 10.0 mi North 8.1 mph - N/A   Clear
1:35 AM 32.0 °F 25.6 °F 21.2 °F 64% 30.38 in 10.0 mi North 6.9 mph - N/A   Clear
1:55 AM 32.0 °F 24.8 °F 21.2 °F 64% 30.39 in 10.0 mi North 8.1 mph - N/A   Clear
2:15 AM 30.2 °F 25.4 °F 19.4 °F 64% 30.38 in 10.0 mi NNW 4.6 mph - N/A   Clear
2:35 AM 30.2 °F 25.4 °F 19.4 °F 64% 30.38 in 10.0 mi North 4.6 mph - N/A   Clear
2:55 AM 30.2 °F 24.3 °F 19.4 °F 64% 30.38 in 10.0 mi North 5.8 mph - N/A   Clear
3:15 AM 30.2 °F 23.4 °F 19.4 °F 64% 30.38 in 10.0 mi North 6.9 mph - N/A   Clear
3:35 AM 30.2 °F 24.3 °F 19.4 °F 64% 30.37 in 10.0 mi NNE 5.8 mph - N/A   Clear
3:55 AM 28.4 °F - 19.4 °F 69% 30.37 in - Calm Calm - N/A   Clear
4:15 AM 28.4 °F 23.3 °F 19.4 °F 69% 30.37 in 10.0 mi NNE 4.6 mph - N/A   Clear
4:35 AM 28.4 °F 22.2 °F 19.4 °F 69% 30.38 in 10.0 mi NNE 5.8 mph - N/A   Clear
4:55 AM 28.4 °F 21.2 °F 19.4 °F 69% 30.37 in 10.0 mi NNE 6.9 mph - N/A   Clear
5:15 AM 26.6 °F 19.1 °F 17.6 °F 69% 30.37 in 10.0 mi NNE 6.9 mph - N/A   Clear
5:35 AM 26.6 °F 19.1 °F 19.4 °F 74% 30.38 in 10.0 mi NNE 6.9 mph - N/A   Clear
5:55 AM 26.6 °F 21.2 °F 19.4 °F 74% 30.38 in 10.0 mi NNE 4.6 mph - N/A   Clear
6:15 AM 26.6 °F 19.1 °F 19.4 °F 74% 30.38 in 10.0 mi NNE 6.9 mph - N/A   Clear
6:35 AM 26.6 °F 20.0 °F 17.6 °F 69% 30.38 in 10.0 mi NNE 5.8 mph - N/A   Clear
6:55 AM 26.6 °F 21.2 °F 17.6 °F 69% 30.39 in 10.0 mi NNE 4.6 mph - N/A   Clear
7:15 AM 26.6 °F 22.6 °F 17.6 °F 69% 30.39 in 10.0 mi NNE 3.5 mph - N/A   Clear
7:35 AM 26.6 °F 21.2 °F 17.6 °F 69% 30.39 in 10.0 mi NE 4.6 mph - N/A   Clear
7:55 AM 26.6 °F 22.6 °F 19.4 °F 74% 30.39 in 10.0 mi NE 3.5 mph - N/A   Clear
8:15 AM 28.4 °F 23.3 °F 19.4 °F 69% 30.39 in 10.0 mi ENE 4.6 mph - N/A   Clear
8:35 AM 32.0 °F 23.6 °F 19.4 °F 60% 30.39 in 10.0 mi East 10.4 mph - N/A   Clear
8:55 AM 33.8 °F 24.8 °F 21.2 °F 60% 30.39 in 10.0 mi East 12.7 mph - N/A   Clear
9:15 AM 37.4 °F 28.5 °F 21.2 °F 52% 30.38 in 10.0 mi East 15.0 mph - N/A   Clear
9:35 AM 41.0 °F 32.5 °F 21.2 °F 45% 30.38 in 10.0 mi ESE 17.3 mph - N/A   Clear
9:55 AM 42.8 °F 34.5 °F 21.2 °F 42% 30.38 in 10.0 mi SE 18.4 mph - N/A   Clear
10:15 AM 42.8 °F 34.0 °F 21.2 °F 42% 30.37 in 10.0 mi ESE 20.7 mph - N/A   Clear
10:35 AM 44.6 °F 35.9 °F 19.4 °F 37% 30.37 in 10.0 mi SE 23.0 mph - N/A   Clear
11:15 AM 48.2 °F - 19.4 °F 32% 30.36 in 10.0 mi SE 21.9 mph - N/A   Clear
11:35 AM 50.0 °F - 19.4 °F 30% 30.36 in 10.0 mi SE 18.4 mph 27.6 mph N/A   Clear
12:15 PM 50.0 °F - 15.8 °F 26% 30.34 in 10.0 mi SE 17.3 mph 25.3 mph N/A   Clear
12:35 PM 51.8 °F - 15.8 °F 24% 30.33 in 10.0 mi SE 17.3 mph 25.3 mph N/A   Clear
12:55 PM 53.6 °F - 15.8 °F 22% 30.32 in 10.0 mi SSE 18.4 mph 24.2 mph N/A   Clear
1:35 PM 55.4 °F - 14.0 °F 20% 30.29 in 10.0 mi SE 15.0 mph 21.9 mph N/A   Clear
1:55 PM 55.4 °F - 14.0 °F 20% 30.27 in 10.0 mi SSE 16.1 mph 23.0 mph N/A   Clear
2:15 PM 55.4 °F - 14.0 °F 20% 30.25 in 10.0 mi SE 16.1 mph 23.0 mph N/A   Clear
2:35 PM 57.2 °F - 15.8 °F 20% 30.24 in 10.0 mi SE 18.4 mph - N/A   Clear
2:55 PM 57.2 °F - 15.8 °F 20% 30.22 in 10.0 mi SE 18.4 mph - N/A   Clear
3:15 PM 59.0 °F - 15.8 °F 19% 30.22 in 10.0 mi SSE 17.3 mph - N/A   Scattered Clouds
3:35 PM 59.0 °F - 15.8 °F 19% 30.20 in 10.0 mi SSE 15.0 mph 23.0 mph N/A   Mostly Cloudy
3:55 PM 59.0 °F - 17.6 °F 20% 30.19 in 10.0 mi SSE 15.0 mph 25.3 mph N/A   Overcast
4:15 PM 59.0 °F - 15.8 °F 19% 30.19 in 9.0 mi SE 15.0 mph - N/A   Mostly Cloudy
4:35 PM 59.0 °F - 17.6 °F 20% 30.17 in 9.0 mi SE 16.1 mph - N/A   Mostly Cloudy
4:55 PM 59.0 °F - 17.6 °F 20% 30.17 in 10.0 mi SE 16.1 mph - N/A   Mostly Cloudy
5:15 PM 59.0 °F - 17.6 °F 20% 30.15 in 10.0 mi SE 15.0 mph - N/A   Scattered Clouds
5:55 PM 57.2 °F - 19.4 °F 23% 30.12 in 10.0 mi SE 15.0 mph - N/A   Overcast
6:15 PM 57.2 °F - 23.0 °F 27% 30.12 in 10.0 mi SSE 16.1 mph 21.9 mph N/A   Overcast
6:35 PM 57.2 °F - 24.8 °F 29% 30.11 in 10.0 mi SE 11.5 mph - N/A   Overcast
6:55 PM 55.4 °F - 26.6 °F 33% 30.12 in 10.0 mi SSE 12.7 mph - N/A   Overcast
7:15 PM 55.4 °F - 26.6 °F 33% 30.12 in 10.0 mi SSE 12.7 mph - N/A   Overcast
7:35 PM 55.4 °F - 28.4 °F 36% 30.12 in 10.0 mi SSE 15.0 mph 20.7 mph N/A   Overcast
7:55 PM 53.6 °F - 35.6 °F 51% 30.12 in 10.0 mi South 16.1 mph 26.5 mph N/A   Overcast
8:15 PM 53.6 °F - 37.4 °F 54% 30.11 in 10.0 mi South 18.4 mph - N/A   Overcast
8:35 PM 51.8 °F - 39.2 °F 62% 30.10 in 10.0 mi SSE 16.1 mph 21.9 mph N/A   Overcast
8:55 PM 51.8 °F - 41.0 °F 67% 30.09 in 10.0 mi SSE 17.3 mph - N/A   Overcast
9:15 PM 51.8 °F - 41.0 °F 67% 30.08 in 10.0 mi SSE 16.1 mph - N/A   Overcast
9:35 PM 50.0 °F - 42.8 °F 76% 30.07 in 10.0 mi SSE 15.0 mph 20.7 mph N/A   Overcast
9:55 PM 50.0 °F - 42.8 °F 76% 30.06 in 10.0 mi SSE 15.0 mph - N/A   Overcast
10:15 PM 50.0 °F - 41.0 °F 71% 30.07 in 10.0 mi SSE 12.7 mph 19.6 mph N/A   Overcast
10:35 PM 50.0 °F - 42.8 °F 76% 30.05 in 10.0 mi SSE 16.1 mph 21.9 mph N/A   Overcast
10:55 PM 50.0 °F - 42.8 °F 76% 30.05 in 10.0 mi SSE 13.8 mph 19.6 mph N/A   Overcast